Location: Newark
(44.3681°N, 100.3364°W)
Time: 13:59:13
(UTC+00:00)

S-56A Canister/Altair - Pass Details

Date: 01 March 2020
Orbit: 634 x 2498 km, 38.9° (Epoch: 29 March)

Event Time Altitude Azimuth Distance (km) Brightness Sun altitude
Rises 18:56:22 0° 273° (W) 5,722 12.0 38.4°
Reaches altitude 10° 18:59:53 10° 271° (W) 4,877 11.7 38.4°
Maximum altitude 19:14:12 66° 194° (SSW) 2,670 11.6 38.2°
Drops below altitude 10° 19:28:23 10° 117° (ESE) 4,839 11.9 37.9°
Sets 19:31:51 0° 115° (ESE) 5,676 12.1 37.7°
